Lid_Strength_Index
13 13 13 12 12 12 12 10 11 10 10 8 7 6 5 4 4 4 4 4 3 4 3 3 3 2 2 2 2 1 2 2 2 1 1 1 1 1 0 0 0 0 0 0
14 13 12 13 12 12 11 11 11 11 11 7 7 5 5 4 4 4 4 3 3 3 3 3 3 3 2 2 2 1 2 2 1 1 1 1 1 1 1 1 1 0 1 1
16 14 14 14 12 11 11 10 10 12 9 7 7 6 5 5 4 4 4 3 3 3 3 3 3 2 2 2 2 2 2 2 2 2 2 2 1 1 1 1 1 1 1 1
16 15 18 12 9 10 10 9 9 9 8 7 6 5 4 3 4 4 3 3 3 3 2 2 2 2 2 2 2 2 2 2 2 2 2 1 1 2 1 1 1 1 1 1
17 16 14 13 11 9 11 9 7 7 7 7 6 5 5 3 3 3 3 3 2 2 2 2 2 2 2 2 2 2 2 2 2 2 2 2 2 2 2 2 1 1 1 1
16 18 18 12 9 8 8 12 8 8 8 6 7 8 6 3 3 3 3 2 2 2 2 2 2 1 2 2 2 3 2 2 2 2 2 2 2 2 1 1 1 1 1 1
16 17 15 10 8 7 13 10 8 7 7 8 8 6 4 3 3 3 3 2 2 2 2 2 1 2 3 2 3 2 1 1 1 1 2 1 2 1 1 1 1 2 2 1
15 17 19 10 7 10 8 7 7 7 7 7 7 6 4 4 5 4 4 4 2 3 3 2 2 2 3 3 2 1 1 2 2 2 2 2 2 2 2 2 2 2 2 2
12 14 10 8 7 6 6 7 7 7 6 6 6 6 5 5 5 4 4 4 3 3 3 3 2 2 3 2 1 1 2 2 2 2 2 1 2 2 3 2 3 3 3 3
11 10 10 9 7 6 5 6 5 5 6 6 6 5 5 5 5 4 4 4 3 3 4 4 2 2 2 2 1 1 2 2 2 2 2 2 2 2 2 3 3 3 3 3
10 9 8 7 6 6 5 5 5 5 5 5 5 5 5 5 5 4 4 3 3 3 3 3 2 2 2 2 2 2 2 2 2 2 2 2 2 2 2 2 2 3 3 3
12 7 7 7 5 4 5 5 5 5 5 5 5 5 5 5 4 4 4 3 3 3 3 3 2 2 2 1 1 2 3 2 2 2 2 2 3 4 13 13 12 12 11 4
8 5 5 5 5 4 5 5 5 5 5 5 5 5 5 5 4 4 4 3 3 3 3 3 2 2 2 1 2 2 3 2 2 3 2 3 4 3 5 11 16 14 14 13
5 5 7 6 6 5 5 5 5 4 4 4 4 4 4 4 4 4 4 3 3 3 3 2 2 3 2 1 2 2 2 7 3 3 2 3 3 4 6 7 8 9 14 12
6 4 5 5 5 5 4 5 5 5 5 5 4 4 4 5 5 4 3 2 2 3 3 2 3 3 2 1 2 2 2 2 2 2 4 4 3 3 4 6 7 8 12 15
5 5 5 6 6 6 5 5 6 6 5 6 5 4 4 3 3 4 4 3 4 4 3 3 3 2 1 1 1 2 2 4 3 2 3 5 5 5 5 5 6 8 8 9
7 8 7 7 7 6 6 5 5 5 5 4 4 4 4 4 5 4 3 3 3 3 2 2 2 1 1 1 1 2 2 2 3 2 2 2 3 4 3 5 5 4 7 8
5 5 5 5 6 6 6 5 4 4 4 4 4 4 6 6 7 6 4 4 3 3 3 2 2 1 1 1 1 2 2 2 2 2 2 2 3 3 3 3 3 3 5 7
7 6 5 5 5 5 5 5 4 4 4 4 5 5 5 6 6 4 4 5 5 4 4 3 3 1 1 1 1 1 2 2 2 2 2 3 2 2 3 3 3 4 4 4
7 7 7 7 7 6 6 5 5 5 5 4 5 5 5 5 4 4 4 5 5 4 3 3 1 1 1 1 1 1 2 2 2 2 2 2 2 3 3 6 4 4 4 3
8 8 8 8 8 8 8 7 7 8 7 7 6 5 5 5 6 6 6 7 6 5 4 4 3 2 2 1 1 1 2 2 2 2 2 2 2 3 3 3 4 4 5 4
8 8 7 7 9 9 8 8 7 8 8 7 6 5 5 5 4 5 7 7 7 7 5 5 4 4 3 3 3 2 2 3 4 3 2 2 2 2 2 3 4 4 4 4
7 7 7 7 8 8 8 8 8 8 9 8 7 6 8 8 8 8 9 8 7 8 6 6 6 5 5 4 4 4 5 5 5 6 6 7 4 4 3 4 3 4 4 4
8 7 7 7 7 7 8 8 8 8 8 7 7 7 8 8 9 8 8 9 9 8 8 8 7 6 5 6 5 5 5 6 7 7 7 9 6 5 6 7 8 8 6 6
7 6 6 6 6 7 7 7 7 7 7 7 7 8 8 8 9 9 8 8 8 7 8 8 7 7 6 5 6 7 7 7 7 5 7 7 7 7 7 7 7 7 7 7
7 7 6 6 6 6 6 7 7 7 7 8 8 8 8 8 9 9 9 9 9 9 8 8 8 6 5 5 5 5 5 6 5 6 6 6 6 5 5 5 6 6 7 7
7 8 6 6 6 7 7 7 7 8 8 8 8 8 8 8 8 8 9 9 9 9 9 8 8 7 6 6 6 6 5 5 7 5 4 5 5 6 6 6 6 5 4 4